Time,TemperatureF,DewpointF,PressureIn,WindDirection,WindDirectionDegrees,WindSpeedMPH,WindSpeedGustMPH,Humidity,HourlyPrecipIn,Conditions,Clouds,dailyrainin,SoftwareType,DateUTC
2013-01-18 00:04:00,45.5,30.7,30.52,NNW,339,0.0,0.0,56,0.00,,,0.00,meteohub,2013-01-18 06:04:00,
2013-01-18 00:09:00,46.0,30.7,30.52,NNW,339,0.0,0.0,55,0.00,,,0.00,meteohub,2013-01-18 06:09:00,
2013-01-18 00:14:00,46.2,30.9,30.52,NNW,339,0.0,0.0,55,0.00,,,0.00,meteohub,2013-01-18 06:14:00,
2013-01-18 00:19:00,46.2,30.9,30.52,NNW,339,0.0,0.0,55,0.00,,,0.00,meteohub,2013-01-18 06:19:00,
2013-01-18 00:24:00,46.6,31.3,30.52,NNW,339,0.0,0.0,55,0.00,,,0.00,meteohub,2013-01-18 06:24:00,
2013-01-18 00:29:00,46.4,31.1,30.52,NNW,339,0.0,0.0,55,0.00,,,0.00,meteohub,2013-01-18 06:29:00,
2013-01-18 00:34:00,46.6,31.3,30.52,NNW,339,0.0,0.0,55,0.00,,,0.00,meteohub,2013-01-18 06:34:00,
2013-01-18 00:39:00,46.2,30.9,30.52,NNW,339,0.0,0.0,55,0.00,,,0.00,meteohub,2013-01-18 06:39:00,
2013-01-18 00:44:00,46.2,30.9,30.52,NNW,339,0.0,0.0,55,0.00,,,0.00,meteohub,2013-01-18 06:44:00,
2013-01-18 00:49:00,46.6,31.3,30.52,NNW,339,0.0,0.0,55,0.00,,,0.00,meteohub,2013-01-18 06:49:00,
2013-01-18 00:54:00,46.6,30.7,30.53,NNW,339,0.0,0.0,54,0.00,,,0.00,meteohub,2013-01-18 06:54:00,
2013-01-18 00:59:00,46.4,31.1,30.53,NNW,339,0.0,0.0,55,0.00,,,0.00,meteohub,2013-01-18 06:59:00,
2013-01-18 01:04:00,46.2,30.9,30.53,NNW,339,0.0,0.0,55,0.00,,,0.00,meteohub,2013-01-18 07:04:00,
2013-01-18 01:09:00,46.2,30.9,30.53,NNW,339,0.0,0.0,55,0.00,,,0.00,meteohub,2013-01-18 07:09:00,
2013-01-18 01:14:00,46.0,30.7,30.53,NNW,339,0.0,0.0,55,0.00,,,0.00,meteohub,2013-01-18 07:14:00,
2013-01-18 01:19:00,45.7,30.9,30.53,NNW,339,0.0,0.0,56,0.00,,,0.00,meteohub,2013-01-18 07:19:00,
2013-01-18 01:24:00,45.7,30.9,30.52,NNW,339,0.0,0.0,56,0.00,,,0.00,meteohub,2013-01-18 07:24:00,
2013-01-18 01:29:00,45.5,31.1,30.52,NNW,339,0.0,0.0,57,0.00,,,0.00,meteohub,2013-01-18 07:29:00,
2013-01-18 01:34:00,45.5,31.1,30.52,NNW,339,0.0,0.0,57,0.00,,,0.00,meteohub,2013-01-18 07:34:00,
2013-01-18 01:39:00,45.5,31.1,30.52,NNW,339,0.0,0.0,57,0.00,,,0.00,meteohub,2013-01-18 07:39:00,
2013-01-18 01:44:00,45.3,30.9,30.52,NNW,339,0.0,0.0,57,0.00,,,0.00,meteohub,2013-01-18 07:44:00,
2013-01-18 01:49:00,45.1,30.7,30.52,NNW,339,0.0,0.0,57,0.00,,,0.00,meteohub,2013-01-18 07:49:00,
2013-01-18 01:54:00,45.0,31.1,30.52,NNW,339,0.0,0.0,58,0.00,,,0.00,meteohub,2013-01-18 07:54:00,
2013-01-18 01:59:00,45.0,31.1,30.52,NNW,339,0.0,0.0,58,0.00,,,0.00,meteohub,2013-01-18 07:59:00,
2013-01-18 02:04:00,44.8,30.9,30.52,NNW,339,0.0,0.0,58,0.00,,,0.00,meteohub,2013-01-18 08:04:00,
2013-01-18 02:09:00,44.6,31.1,30.52,NNW,339,0.0,0.0,59,0.00,,,0.00,meteohub,2013-01-18 08:09:00,
2013-01-18 02:14:00,44.8,31.3,30.52,NNW,339,0.0,0.0,59,0.00,,,0.00,meteohub,2013-01-18 08:14:00,
2013-01-18 02:19:00,44.6,31.1,30.52,NNW,339,0.0,0.0,59,0.00,,,0.00,meteohub,2013-01-18 08:19:00,
2013-01-18 02:24:00,44.4,30.9,30.52,NNW,339,0.0,0.0,59,0.00,,,0.00,meteohub,2013-01-18 08:24:00,
2013-01-18 02:29:00,44.4,30.9,30.51,NNW,339,0.0,0.0,59,0.00,,,0.00,meteohub,2013-01-18 08:29:00,
2013-01-18 02:34:00,44.4,30.9,30.52,NNW,339,0.0,0.0,59,0.00,,,0.00,meteohub,2013-01-18 08:34:00,
2013-01-18 02:39:00,44.6,31.1,30.52,NNW,344,0.0,0.0,59,0.00,,,0.00,meteohub,2013-01-18 08:39:00,
2013-01-18 02:44:00,44.6,31.1,30.51,NNW,348,0.0,1.0,59,0.00,,,0.00,meteohub,2013-01-18 08:44:00,
2013-01-18 02:49:00,44.2,30.7,30.51,North,350,0.0,1.0,59,0.00,,,0.00,meteohub,2013-01-18 08:49:00,
2013-01-18 02:55:00,43.9,30.9,30.51,NNE,13,0.0,1.0,60,0.00,,,0.00,meteohub,2013-01-18 08:55:00,
2013-01-18 03:00:00,43.9,30.9,30.51,NE,36,0.0,1.0,60,0.00,,,0.00,meteohub,2013-01-18 09:00:00,
2013-01-18 03:05:00,43.7,31.1,30.51,NE,47,0.0,1.0,61,0.00,,,0.00,meteohub,2013-01-18 09:05:00,
2013-01-18 03:10:00,43.5,30.9,30.51,NE,56,0.0,2.0,61,0.00,,,0.00,meteohub,2013-01-18 09:10:00,
2013-01-18 03:15:00,43.3,31.3,30.51,NE,56,0.0,2.0,62,0.00,,,0.00,meteohub,2013-01-18 09:15:00,
2013-01-18 03:20:00,43.3,31.3,30.51,ENE,57,0.0,2.0,62,0.00,,,0.00,meteohub,2013-01-18 09:20:00,
2013-01-18 03:25:00,43.2,31.5,30.51,ENE,57,0.0,2.0,63,0.00,,,0.00,meteohub,2013-01-18 09:25:00,
2013-01-18 03:30:00,43.0,31.3,30.51,ENE,57,0.0,1.0,63,0.00,,,0.00,meteohub,2013-01-18 09:30:00,
2013-01-18 03:35:00,42.8,31.1,30.51,ENE,57,0.0,0.0,63,0.00,,,0.00,meteohub,2013-01-18 09:35:00,
2013-01-18 03:40:00,42.6,30.9,30.51,ENE,67,0.0,0.0,63,0.00,,,0.00,meteohub,2013-01-18 09:40:00,
2013-01-18 03:45:00,42.6,30.9,30.51,ENE,67,0.0,1.0,63,0.00,,,0.00,meteohub,2013-01-18 09:45:00,
2013-01-18 03:50:00,42.6,30.9,30.51,ENE,67,1.0,1.0,63,0.00,,,0.00,meteohub,2013-01-18 09:50:00,
2013-01-18 03:55:00,42.6,30.9,30.51,ENE,71,0.0,2.0,63,0.00,,,0.00,meteohub,2013-01-18 09:55:00,
2013-01-18 04:00:00,42.6,31.3,30.51,East,83,0.0,2.0,64,0.00,,,0.00,meteohub,2013-01-18 10:00:00,
2013-01-18 04:05:00,42.4,31.1,30.51,East,84,0.0,6.0,64,0.00,,,0.00,meteohub,2013-01-18 10:05:00,
2013-01-18 04:10:00,42.3,30.9,30.51,East,84,0.0,6.0,64,0.00,,,0.00,meteohub,2013-01-18 10:10:00,
2013-01-18 04:15:00,42.3,30.9,30.51,East,85,0.0,6.0,64,0.00,,,0.00,meteohub,2013-01-18 10:15:00,
2013-01-18 04:20:00,42.1,30.7,30.51,East,85,0.0,3.0,64,0.00,,,0.00,meteohub,2013-01-18 10:20:00,
2013-01-18 04:25:00,41.7,30.7,30.51,East,85,0.0,1.0,65,0.00,,,0.00,meteohub,2013-01-18 10:25:00,
2013-01-18 04:30:00,41.7,30.7,30.51,East,88,3.0,3.0,65,0.00,,,0.00,meteohub,2013-01-18 10:30:00,
2013-01-18 04:35:00,41.7,31.3,30.50,ESE,109,3.0,3.0,66,0.00,,,0.00,meteohub,2013-01-18 10:35:00,
2013-01-18 04:40:00,42.1,31.5,30.50,ESE,115,2.0,3.0,66,0.00,,,0.00,meteohub,2013-01-18 10:40:00,
2013-01-18 04:45:00,42.1,31.1,30.50,ESE,116,3.0,7.0,65,0.00,,,0.00,meteohub,2013-01-18 10:45:00,
2013-01-18 04:50:00,42.3,31.3,30.49,ESE,120,5.0,7.0,65,0.00,,,0.00,meteohub,2013-01-18 10:50:00,
2013-01-18 04:55:00,42.3,30.9,30.49,SE,126,6.0,8.0,64,0.00,,,0.00,meteohub,2013-01-18 10:55:00,
2013-01-18 05:00:00,42.4,31.1,30.49,ESE,108,0.0,8.0,64,0.00,,,0.00,meteohub,2013-01-18 11:00:00,
2013-01-18 05:05:00,42.4,31.1,30.49,ESE,107,5.0,9.0,64,0.00,,,0.00,meteohub,2013-01-18 11:05:00,
2013-01-18 05:10:00,42.4,31.1,30.49,SE,127,0.0,10.0,64,0.00,,,0.00,meteohub,2013-01-18 11:10:00,
2013-01-18 05:15:00,42.3,30.9,30.49,ESE,118,8.0,10.0,64,0.00,,,0.00,meteohub,2013-01-18 11:15:00,
2013-01-18 05:20:00,42.1,30.7,30.49,SE,125,2.0,10.0,64,0.00,,,0.00,meteohub,2013-01-18 11:20:00,
2013-01-18 05:25:00,42.1,30.7,30.49,ESE,109,2.0,9.0,64,0.00,,,0.00,meteohub,2013-01-18 11:25:00,
2013-01-18 05:30:00,42.1,30.7,30.49,ESE,122,0.0,9.0,64,0.00,,,0.00,meteohub,2013-01-18 11:30:00,
2013-01-18 05:35:00,41.9,30.9,30.49,ESE,108,5.0,10.0,65,0.00,,,0.00,meteohub,2013-01-18 11:35:00,
2013-01-18 05:40:00,41.9,30.9,30.49,ESE,119,3.0,10.0,65,0.00,,,0.00,meteohub,2013-01-18 11:40:00,
2013-01-18 05:45:00,41.7,30.7,30.48,ESE,122,0.0,9.0,65,0.00,,,0.00,meteohub,2013-01-18 11:45:00,
2013-01-18 05:50:00,41.5,30.7,30.48,ESE,103,1.0,9.0,65,0.00,,,0.00,meteohub,2013-01-18 11:50:00,
2013-01-18 05:55:00,41.5,31.1,30.48,ESE,122,2.0,9.0,66,0.00,,,0.00,meteohub,2013-01-18 11:55:00,
2013-01-18 06:00:00,41.5,31.1,30.48,ESE,111,4.0,9.0,66,0.00,,,0.00,meteohub,2013-01-18 12:00:00,
2013-01-18 06:05:00,41.5,31.1,30.48,ESE,117,2.0,9.0,66,0.00,,,0.00,meteohub,2013-01-18 12:05:00,
2013-01-18 06:10:00,41.4,30.9,30.48,SE,130,0.0,10.0,66,0.00,,,0.00,meteohub,2013-01-18 12:10:00,
2013-01-18 06:15:00,41.4,30.9,30.48,ESE,117,0.0,10.0,66,0.00,,,0.00,meteohub,2013-01-18 12:15:00,
2013-01-18 06:20:00,41.2,30.7,30.48,ESE,123,0.0,10.0,66,0.00,,,0.00,meteohub,2013-01-18 12:20:00,
2013-01-18 06:25:00,41.2,30.7,30.48,SE,129,3.0,9.0,66,0.00,,,0.00,meteohub,2013-01-18 12:25:00,
2013-01-18 06:30:00,41.2,30.7,30.49,ESE,123,7.0,10.0,66,0.00,,,0.00,meteohub,2013-01-18 12:30:00,
2013-01-18 06:35:00,41.2,30.7,30.48,ESE,121,7.0,10.0,66,0.00,,,0.00,meteohub,2013-01-18 12:35:00,
2013-01-18 06:40:00,41.2,30.7,30.48,SE,126,5.0,12.0,66,0.00,,,0.00,meteohub,2013-01-18 12:40:00,
2013-01-18 06:45:00,41.2,30.7,30.48,SE,144,5.0,12.0,66,0.00,,,0.00,meteohub,2013-01-18 12:45:00,
2013-01-18 06:50:00,41.2,30.7,30.48,SE,139,5.0,12.0,66,0.00,,,0.00,meteohub,2013-01-18 12:50:00,
2013-01-18 06:55:00,40.8,30.7,30.48,SSE,151,5.0,10.0,67,0.00,,,0.00,meteohub,2013-01-18 12:55:00,
2013-01-18 07:00:00,40.8,30.7,30.48,SE,134,3.0,10.0,67,0.00,,,0.00,meteohub,2013-01-18 13:00:00,
2013-01-18 07:05:00,40.8,30.7,30.48,SE,142,5.0,11.0,67,0.00,,,0.00,meteohub,2013-01-18 13:05:00,
2013-01-18 07:10:00,40.8,30.7,30.48,SE,137,3.0,11.0,67,0.00,,,0.00,meteohub,2013-01-18 13:10:00,
2013-01-18 07:15:00,40.8,30.7,30.48,SE,131,4.0,11.0,67,0.00,,,0.00,meteohub,2013-01-18 13:15:00,
2013-01-18 07:20:00,41.0,30.9,30.48,SE,129,3.0,11.0,67,0.00,,,0.00,meteohub,2013-01-18 13:20:00,
2013-01-18 07:25:00,41.2,30.7,30.48,SE,146,6.0,11.0,66,0.00,,,0.00,meteohub,2013-01-18 13:25:00,
2013-01-18 07:30:00,41.0,30.9,30.48,SE,141,4.0,11.0,67,0.00,,,0.00,meteohub,2013-01-18 13:30:00,
2013-01-18 07:35:00,41.0,30.9,30.48,SSE,148,4.0,11.0,67,0.00,,,0.00,meteohub,2013-01-18 13:35:00,
2013-01-18 07:40:00,41.2,31.1,30.48,SSE,151,5.0,10.0,67,0.00,,,0.00,meteohub,2013-01-18 13:40:00,
2013-01-18 07:45:00,41.2,31.1,30.48,SE,132,5.0,10.0,67,0.00,,,0.00,meteohub,2013-01-18 13:45:00,
2013-01-18 07:51:00,41.2,31.1,30.49,SE,132,0.0,10.0,67,0.00,,,0.00,meteohub,2013-01-18 13:51:00,
2013-01-18 07:56:00,41.2,31.1,30.49,SE,142,5.0,8.0,67,0.00,,,0.00,meteohub,2013-01-18 13:56:00,
2013-01-18 08:01:00,41.4,31.3,30.49,SE,132,3.0,10.0,67,0.00,,,0.00,meteohub,2013-01-18 14:01:00,
2013-01-18 08:06:00,41.5,31.5,30.49,SE,140,6.0,10.0,67,0.00,,,0.00,meteohub,2013-01-18 14:06:00,
2013-01-18 08:11:00,41.7,31.3,30.49,SE,136,6.0,10.0,66,0.00,,,0.00,meteohub,2013-01-18 14:11:00,
2013-01-18 08:16:00,41.9,31.5,30.49,SSE,155,8.0,10.0,66,0.00,,,0.00,meteohub,2013-01-18 14:16:00,
2013-01-18 08:21:00,42.1,31.5,30.49,SSE,153,3.0,11.0,66,0.00,,,0.00,meteohub,2013-01-18 14:21:00,
2013-01-18 08:26:00,42.3,31.6,30.49,SSE,159,7.0,11.0,66,0.00,,,0.00,meteohub,2013-01-18 14:26:00,
2013-01-18 08:31:00,42.1,31.5,30.49,South,181,4.0,11.0,66,0.00,,,0.00,meteohub,2013-01-18 14:31:00,
2013-01-18 08:36:00,42.1,31.5,30.49,SSE,158,0.0,12.0,66,0.00,,,0.00,meteohub,2013-01-18 14:36:00,
2013-01-18 08:41:00,42.3,31.6,30.49,SSE,157,3.0,12.0,66,0.00,,,0.00,meteohub,2013-01-18 14:41:00,
2013-01-18 08:46:00,42.4,31.8,30.49,South,177,4.0,12.0,66,0.00,,,0.00,meteohub,2013-01-18 14:46:00,
2013-01-18 08:51:00,42.8,31.8,30.49,SSE,163,5.0,10.0,65,0.00,,,0.00,meteohub,2013-01-18 14:51:00,
2013-01-18 08:56:00,43.3,32.4,30.49,South,169,6.0,9.0,65,0.00,,,0.00,meteohub,2013-01-18 14:56:00,
2013-01-18 09:01:00,43.5,32.5,30.49,SSE,158,3.0,10.0,65,0.00,,,0.00,meteohub,2013-01-18 15:01:00,
2013-01-18 09:06:00,43.5,32.5,30.49,SE,129,3.0,11.0,65,0.00,,,0.00,meteohub,2013-01-18 15:06:00,
2013-01-18 09:11:00,43.7,32.4,30.49,SSE,165,5.0,11.0,64,0.00,,,0.00,meteohub,2013-01-18 15:11:00,
2013-01-18 09:16:00,43.9,32.5,30.49,SSE,161,4.0,14.0,64,0.00,,,0.00,meteohub,2013-01-18 15:16:00,
2013-01-18 09:21:00,44.1,32.7,30.49,SSE,159,5.0,14.0,64,0.00,,,0.00,meteohub,2013-01-18 15:21:00,
2013-01-18 09:26:00,44.2,32.9,30.49,SSE,159,7.0,14.0,64,0.00,,,0.00,meteohub,2013-01-18 15:26:00,
2013-01-18 09:31:00,44.8,32.9,30.49,South,182,4.0,14.0,63,0.00,,,0.00,meteohub,2013-01-18 15:31:00,
2013-01-18 09:36:00,45.3,33.1,30.49,South,173,6.0,14.0,62,0.00,,,0.00,meteohub,2013-01-18 15:36:00,
2013-01-18 09:41:00,45.3,32.7,30.49,SSE,153,7.0,16.0,61,0.00,,,0.00,meteohub,2013-01-18 15:41:00,
2013-01-18 09:46:00,45.7,33.1,30.49,SSW,202,6.0,16.0,61,0.00,,,0.00,meteohub,2013-01-18 15:46:00,
2013-01-18 09:51:00,46.2,33.1,30.50,SSE,163,9.0,16.0,60,0.00,,,0.00,meteohub,2013-01-18 15:51:00,
2013-01-18 09:56:00,46.6,33.1,30.50,South,170,6.0,13.0,59,0.00,,,0.00,meteohub,2013-01-18 15:56:00,
2013-01-18 10:01:00,46.8,33.3,30.50,South,176,7.0,13.0,59,0.00,,,0.00,meteohub,2013-01-18 16:01:00,
2013-01-18 10:06:00,46.8,33.6,30.49,South,191,2.0,13.0,60,0.00,,,0.00,meteohub,2013-01-18 16:06:00,
2013-01-18 10:11:00,47.7,34.0,30.49,SE,144,5.0,13.0,59,0.00,,,0.00,meteohub,2013-01-18 16:11:00,
2013-01-18 10:16:00,48.0,34.0,30.49,SE,146,1.0,13.0,58,0.00,,,0.00,meteohub,2013-01-18 16:16:00,
2013-01-18 10:21:00,48.4,33.4,30.49,SE,146,8.0,15.0,56,0.00,,,0.00,meteohub,2013-01-18 16:21:00,
2013-01-18 10:26:00,48.6,34.0,30.49,South,178,2.0,15.0,57,0.00,,,0.00,meteohub,2013-01-18 16:26:00,
2013-01-18 10:31:00,49.3,33.8,30.49,SE,136,9.0,15.0,55,0.00,,,0.00,meteohub,2013-01-18 16:31:00,
2013-01-18 10:36:00,49.8,34.3,30.49,SSE,157,7.0,17.0,55,0.00,,,0.00,meteohub,2013-01-18 16:36:00,
2013-01-18 10:41:00,50.5,35.1,30.48,SE,142,2.0,17.0,55,0.00,,,0.00,meteohub,2013-01-18 16:41:00,
2013-01-18 10:46:00,50.7,34.2,30.48,SE,140,7.0,17.0,53,0.00,,,0.00,meteohub,2013-01-18 16:46:00,
2013-01-18 10:51:00,51.3,34.2,30.48,SE,138,6.0,17.0,52,0.00,,,0.00,meteohub,2013-01-18 16:51:00,
2013-01-18 10:56:00,51.4,34.3,30.48,East,99,6.0,17.0,52,0.00,,,0.00,meteohub,2013-01-18 16:56:00,
2013-01-18 11:01:00,51.6,34.2,30.48,SSE,150,5.0,14.0,51,0.00,,,0.00,meteohub,2013-01-18 17:01:00,
2013-01-18 11:06:00,52.2,34.5,30.48,SSE,163,6.0,17.0,51,0.00,,,0.00,meteohub,2013-01-18 17:06:00,
2013-01-18 11:11:00,52.9,34.7,30.48,SSE,159,8.0,17.0,50,0.00,,,0.00,meteohub,2013-01-18 17:11:00,
2013-01-18 11:17:00,52.9,34.7,30.48,SSE,150,3.0,17.0,50,0.00,,,0.00,meteohub,2013-01-18 17:17:00,
2013-01-18 11:22:00,53.4,34.7,30.48,SSE,165,9.0,16.0,49,0.00,,,0.00,meteohub,2013-01-18 17:22:00,
2013-01-18 11:27:00,54.0,34.2,30.47,SSW,200,4.0,16.0,47,0.00,,,0.00,meteohub,2013-01-18 17:27:00,
2013-01-18 11:32:00,54.0,33.6,30.47,SSE,147,10.0,17.0,46,0.00,,,0.00,meteohub,2013-01-18 17:32:00,
2013-01-18 11:37:00,54.3,34.5,30.47,SE,133,1.0,17.0,47,0.00,,,0.00,meteohub,2013-01-18 17:37:00,
2013-01-18 11:42:00,55.2,34.9,30.47,SSE,161,8.0,17.0,46,0.00,,,0.00,meteohub,2013-01-18 17:42:00,
2013-01-18 11:47:00,55.6,35.1,30.47,SE,140,10.0,17.0,46,0.00,,,0.00,meteohub,2013-01-18 17:47:00,
2013-01-18 11:52:00,55.6,35.1,30.46,SSE,153,1.0,14.0,46,0.00,,,0.00,meteohub,2013-01-18 17:52:00,
2013-01-18 11:57:00,56.5,35.4,30.46,SSE,153,3.0,14.0,45,0.00,,,0.00,meteohub,2013-01-18 17:57:00,
2013-01-18 12:02:00,55.9,34.9,30.45,South,172,2.0,12.0,45,0.00,,,0.00,meteohub,2013-01-18 18:02:00,
2013-01-18 12:07:00,56.3,35.8,30.44,SE,128,3.0,11.0,46,0.00,,,0.00,meteohub,2013-01-18 18:07:00,
2013-01-18 12:12:00,56.5,34.9,30.44,SSE,163,2.0,11.0,44,0.00,,,0.00,meteohub,2013-01-18 18:12:00,
2013-01-18 12:17:00,56.5,34.9,30.44,SSE,160,7.0,16.0,44,0.00,,,0.00,meteohub,2013-01-18 18:17:00,
2013-01-18 12:22:00,56.7,34.3,30.44,South,180,8.0,16.0,43,0.00,,,0.00,meteohub,2013-01-18 18:22:00,
2013-01-18 12:27:00,57.0,34.7,30.43,South,187,11.0,14.0,43,0.00,,,0.00,meteohub,2013-01-18 18:27:00,
2013-01-18 12:32:00,57.0,34.2,30.43,SW,228,7.0,14.0,42,0.00,,,0.00,meteohub,2013-01-18 18:32:00,
2013-01-18 12:37:00,57.2,34.3,30.43,SE,127,1.0,16.0,42,0.00,,,0.00,meteohub,2013-01-18 18:37:00,
2013-01-18 12:42:00,57.9,33.1,30.42,SW,217,7.0,16.0,39,0.00,,,0.00,meteohub,2013-01-18 18:42:00,
2013-01-18 12:47:00,57.9,33.1,30.42,SSE,168,9.0,16.0,39,0.00,,,0.00,meteohub,2013-01-18 18:47:00,
2013-01-18 12:52:00,57.7,34.2,30.41,SSW,213,7.0,14.0,41,0.00,,,0.00,meteohub,2013-01-18 18:52:00,
2013-01-18 12:57:00,58.6,34.3,30.40,South,171,10.0,14.0,40,0.00,,,0.00,meteohub,2013-01-18 18:57:00,
2013-01-18 13:02:00,58.8,34.5,30.40,South,186,7.0,18.0,40,0.00,,,0.00,meteohub,2013-01-18 19:02:00,
2013-01-18 13:07:00,58.6,33.8,30.40,SSW,203,5.0,18.0,39,0.00,,,0.00,meteohub,2013-01-18 19:07:00,
2013-01-18 13:12:00,58.6,34.3,30.40,SW,221,0.0,18.0,40,0.00,,,0.00,meteohub,2013-01-18 19:12:00,
2013-01-18 13:17:00,59.0,33.4,30.40,SSE,166,6.0,14.0,38,0.00,,,0.00,meteohub,2013-01-18 19:17:00,
2013-01-18 13:22:00,58.8,32.5,30.39,SSE,167,10.0,14.0,37,0.00,,,0.00,meteohub,2013-01-18 19:22:00,
2013-01-18 13:27:00,59.2,32.9,30.39,ESE,122,5.0,14.0,37,0.00,,,0.00,meteohub,2013-01-18 19:27:00,
2013-01-18 13:32:00,59.2,32.2,30.38,SSW,198,3.0,14.0,36,0.00,,,0.00,meteohub,2013-01-18 19:32:00,
2013-01-18 13:37:00,59.5,33.3,30.38,SE,126,5.0,16.0,37,0.00,,,0.00,meteohub,2013-01-18 19:37:00,
2013-01-18 13:42:00,60.1,33.8,30.38,South,181,3.0,16.0,37,0.00,,,0.00,meteohub,2013-01-18 19:42:00,
2013-01-18 13:47:00,60.3,33.8,30.38,SSE,161,4.0,16.0,37,0.00,,,0.00,meteohub,2013-01-18 19:47:00,
2013-01-18 13:52:00,60.6,34.2,30.37,SE,140,3.0,12.0,37,0.00,,,0.00,meteohub,2013-01-18 19:52:00,
2013-01-18 13:57:00,61.3,33.4,30.37,South,187,6.0,15.0,35,0.00,,,0.00,meteohub,2013-01-18 19:57:00,
2013-01-18 14:02:00,60.8,32.9,30.37,South,171,6.0,15.0,35,0.00,,,0.00,meteohub,2013-01-18 20:02:00,
2013-01-18 14:07:00,60.6,30.6,30.37,SSW,211,11.0,12.0,32,0.00,,,0.00,meteohub,2013-01-18 20:07:00,
2013-01-18 14:12:00,59.9,31.5,30.37,SSW,211,7.0,18.0,34,0.00,,,0.00,meteohub,2013-01-18 20:12:00,
2013-01-18 14:17:00,60.4,32.7,30.36,SW,223,1.0,18.0,35,0.00,,,0.00,meteohub,2013-01-18 20:17:00,
2013-01-18 14:22:00,61.5,32.2,30.36,ESE,111,5.0,18.0,33,0.00,,,0.00,meteohub,2013-01-18 20:22:00,
2013-01-18 14:27:00,61.0,31.6,30.36,SSE,164,8.0,14.0,33,0.00,,,0.00,meteohub,2013-01-18 20:27:00,
2013-01-18 14:32:00,61.2,32.5,30.36,SSE,149,10.0,12.0,34,0.00,,,0.00,meteohub,2013-01-18 20:32:00,
2013-01-18 14:37:00,60.8,31.5,30.36,SSE,150,3.0,12.0,33,0.00,,,0.00,meteohub,2013-01-18 20:37:00,
2013-01-18 14:42:00,61.0,32.4,30.36,SSE,165,3.0,13.0,34,0.00,,,0.00,meteohub,2013-01-18 20:42:00,
2013-01-18 14:47:00,61.3,32.7,30.36,SSE,149,7.0,13.0,34,0.00,,,0.00,meteohub,2013-01-18 20:47:00,
2013-01-18 14:52:00,61.2,33.3,30.35,SE,132,2.0,13.0,35,0.00,,,0.00,meteohub,2013-01-18 20:52:00,
2013-01-18 14:57:00,61.5,33.6,30.35,SSE,164,3.0,11.0,35,0.00,,,0.00,meteohub,2013-01-18 20:57:00,
2013-01-18 15:02:00,62.2,32.7,30.35,SSW,197,6.0,11.0,33,0.00,,,0.00,meteohub,2013-01-18 21:02:00,
2013-01-18 15:07:00,62.1,33.4,30.35,SSE,158,3.0,12.0,34,0.00,,,0.00,meteohub,2013-01-18 21:07:00,
2013-01-18 15:12:00,62.1,31.8,30.34,SE,136,2.0,14.0,32,0.00,,,0.00,meteohub,2013-01-18 21:12:00,
2013-01-18 15:17:00,62.2,33.4,30.34,SSE,165,11.0,14.0,34,0.00,,,0.00,meteohub,2013-01-18 21:17:00,
2013-01-18 15:22:00,62.1,34.2,30.34,SE,128,4.0,11.0,35,0.00,,,0.00,meteohub,2013-01-18 21:22:00,
2013-01-18 15:27:00,62.2,32.7,30.34,SE,143,4.0,11.0,33,0.00,,,0.00,meteohub,2013-01-18 21:27:00,
2013-01-18 15:32:00,61.5,32.9,30.34,South,169,3.0,11.0,34,0.00,,,0.00,meteohub,2013-01-18 21:32:00,
2013-01-18 15:37:00,61.9,33.3,30.34,South,174,8.0,8.0,34,0.00,,,0.00,meteohub,2013-01-18 21:37:00,
2013-01-18 15:42:00,61.5,32.9,30.34,SE,142,4.0,11.0,34,0.00,,,0.00,meteohub,2013-01-18 21:42:00,
2013-01-18 15:47:00,62.2,32.7,30.34,SE,128,5.0,11.0,33,0.00,,,0.00,meteohub,2013-01-18 21:47:00,
2013-01-18 15:53:00,61.9,33.3,30.33,SSE,159,6.0,10.0,34,0.00,,,0.00,meteohub,2013-01-18 21:53:00,
2013-01-18 15:58:00,62.1,32.5,30.33,SE,133,5.0,11.0,33,0.00,,,0.00,meteohub,2013-01-18 21:58:00,
2013-01-18 16:03:00,61.9,33.3,30.33,SSE,167,1.0,11.0,34,0.00,,,0.00,meteohub,2013-01-18 22:03:00,
2013-01-18 16:08:00,62.1,32.5,30.33,SSW,193,0.0,11.0,33,0.00,,,0.00,meteohub,2013-01-18 22:08:00,
2013-01-18 16:13:00,62.6,33.1,30.33,SE,142,4.0,9.0,33,0.00,,,0.00,meteohub,2013-01-18 22:13:00,
2013-01-18 16:18:00,62.1,32.5,30.33,SSW,206,5.0,9.0,33,0.00,,,0.00,meteohub,2013-01-18 22:18:00,
2013-01-18 16:23:00,61.9,33.3,30.33,SE,140,4.0,9.0,34,0.00,,,0.00,meteohub,2013-01-18 22:23:00,
2013-01-18 16:28:00,61.5,32.9,30.33,South,179,3.0,9.0,34,0.00,,,0.00,meteohub,2013-01-18 22:28:00,
2013-01-18 16:33:00,61.3,33.4,30.33,SE,126,4.0,12.0,35,0.00,,,0.00,meteohub,2013-01-18 22:33:00,
2013-01-18 16:38:00,61.3,33.4,30.33,South,171,1.0,12.0,35,0.00,,,0.00,meteohub,2013-01-18 22:38:00,
2013-01-18 16:43:00,61.3,32.7,30.33,South,175,5.0,12.0,34,0.00,,,0.00,meteohub,2013-01-18 22:43:00,
2013-01-18 16:48:00,61.3,33.4,30.33,South,188,5.0,9.0,35,0.00,,,0.00,meteohub,2013-01-18 22:48:00,
2013-01-18 16:53:00,61.2,32.5,30.33,SE,138,3.0,8.0,34,0.00,,,0.00,meteohub,2013-01-18 22:53:00,
2013-01-18 16:58:00,61.0,32.4,30.33,South,184,2.0,8.0,34,0.00,,,0.00,meteohub,2013-01-18 22:58:00,
2013-01-18 17:03:00,60.6,33.4,30.33,SSE,155,5.0,8.0,36,0.00,,,0.00,meteohub,2013-01-18 23:03:00,
2013-01-18 17:08:00,60.4,32.7,30.33,SSE,162,4.0,10.0,35,0.00,,,0.00,meteohub,2013-01-18 23:08:00,
2013-01-18 17:13:00,60.3,32.5,30.33,SSE,162,2.0,10.0,35,0.00,,,0.00,meteohub,2013-01-18 23:13:00,
2013-01-18 17:18:00,59.9,33.6,30.33,SE,136,3.0,10.0,37,0.00,,,0.00,meteohub,2013-01-18 23:18:00,
2013-01-18 17:23:00,59.4,33.1,30.33,SE,134,4.0,7.0,37,0.00,,,0.00,meteohub,2013-01-18 23:23:00,
2013-01-18 17:28:00,58.8,33.3,30.33,SE,138,3.0,7.0,38,0.00,,,0.00,meteohub,2013-01-18 23:28:00,
2013-01-18 17:33:00,58.3,32.7,30.33,SSE,150,1.0,7.0,38,0.00,,,0.00,meteohub,2013-01-18 23:33:00,
2013-01-18 17:38:00,57.7,32.9,30.33,SE,146,1.0,6.0,39,0.00,,,0.00,meteohub,2013-01-18 23:38:00,
2013-01-18 17:43:00,57.4,32.5,30.33,SE,138,0.0,7.0,39,0.00,,,0.00,meteohub,2013-01-18 23:43:00,
2013-01-18 17:48:00,56.7,32.5,30.33,SE,136,3.0,7.0,40,0.00,,,0.00,meteohub,2013-01-18 23:48:00,
2013-01-18 17:53:00,56.3,32.9,30.33,SSE,150,1.0,7.0,41,0.00,,,0.00,meteohub,2013-01-18 23:53:00,
2013-01-18 17:58:00,55.9,32.5,30.33,SE,130,2.0,7.0,41,0.00,,,0.00,meteohub,2013-01-18 23:58:00,
2013-01-18 18:03:00,55.6,32.9,30.33,SE,133,4.0,8.0,42,0.00,,,0.00,meteohub,2013-01-19 00:03:00,
2013-01-18 18:08:00,55.4,33.3,30.33,SE,125,2.0,8.0,43,0.00,,,0.00,meteohub,2013-01-19 00:08:00,
2013-01-18 18:13:00,55.2,33.1,30.33,SE,129,7.0,9.0,43,0.00,,,0.00,meteohub,2013-01-19 00:13:00,
2013-01-18 18:18:00,55.0,34.2,30.33,SSE,148,2.0,9.0,45,0.00,,,0.00,meteohub,2013-01-19 00:18:00,
2013-01-18 18:23:00,54.9,34.5,30.33,SSE,148,7.0,9.0,46,0.00,,,0.00,meteohub,2013-01-19 00:23:00,
2013-01-18 18:28:00,54.5,34.2,30.33,SE,133,5.0,13.0,46,0.00,,,0.00,meteohub,2013-01-19 00:28:00,
2013-01-18 18:33:00,54.3,34.5,30.33,SE,136,6.0,13.0,47,0.00,,,0.00,meteohub,2013-01-19 00:33:00,
2013-01-18 18:38:00,54.1,34.3,30.33,ESE,122,2.0,11.0,47,0.00,,,0.00,meteohub,2013-01-19 00:38:00,
2013-01-18 18:43:00,54.0,34.7,30.33,SE,137,7.0,10.0,48,0.00,,,0.00,meteohub,2013-01-19 00:43:00,
2013-01-18 18:48:00,53.8,34.5,30.33,SE,133,9.0,12.0,48,0.00,,,0.00,meteohub,2013-01-19 00:48:00,
2013-01-18 18:53:00,53.6,34.9,30.33,SE,137,7.0,12.0,49,0.00,,,0.00,meteohub,2013-01-19 00:53:00,
2013-01-18 18:58:00,53.6,34.9,30.33,SSE,155,5.0,15.0,49,0.00,,,0.00,meteohub,2013-01-19 00:58:00,
2013-01-18 19:03:00,53.2,34.5,30.33,SE,130,9.0,15.0,49,0.00,,,0.00,meteohub,2013-01-19 01:03:00,
2013-01-18 19:08:00,53.1,34.9,30.33,SSE,167,8.0,15.0,50,0.00,,,0.00,meteohub,2013-01-19 01:08:00,
2013-01-18 19:13:00,52.9,34.7,30.33,SE,130,7.0,12.0,50,0.00,,,0.00,meteohub,2013-01-19 01:13:00,
2013-01-18 19:19:00,52.7,35.1,30.34,SSE,165,8.0,13.0,51,0.00,,,0.00,meteohub,2013-01-19 01:19:00,
2013-01-18 19:24:00,52.5,34.9,30.33,SE,133,6.0,13.0,51,0.00,,,0.00,meteohub,2013-01-19 01:24:00,
2013-01-18 19:29:00,52.3,35.2,30.33,SE,130,3.0,13.0,52,0.00,,,0.00,meteohub,2013-01-19 01:29:00,
2013-01-18 19:34:00,52.3,35.2,30.33,SE,128,7.0,13.0,52,0.00,,,0.00,meteohub,2013-01-19 01:34:00,
2013-01-18 19:39:00,52.2,35.6,30.33,SSE,148,7.0,13.0,53,0.00,,,0.00,meteohub,2013-01-19 01:39:00,
2013-01-18 19:44:00,52.0,35.4,30.33,SE,128,6.0,15.0,53,0.00,,,0.00,meteohub,2013-01-19 01:44:00,
2013-01-18 19:49:00,52.0,35.4,30.33,SE,140,3.0,15.0,53,0.00,,,0.00,meteohub,2013-01-19 01:49:00,
2013-01-18 19:54:00,52.0,35.8,30.33,SE,132,7.0,15.0,54,0.00,,,0.00,meteohub,2013-01-19 01:54:00,
2013-01-18 19:59:00,51.8,35.6,30.33,SE,142,7.0,15.0,54,0.00,,,0.00,meteohub,2013-01-19 01:59:00,
2013-01-18 20:04:00,51.6,35.6,30.33,SE,142,8.0,15.0,54,0.00,,,0.00,meteohub,2013-01-19 02:04:00,
2013-01-18 20:09:00,51.4,35.4,30.33,SE,127,11.0,15.0,54,0.00,,,0.00,meteohub,2013-01-19 02:09:00,
2013-01-18 20:14:00,51.3,35.6,30.32,SE,138,6.0,15.0,55,0.00,,,0.00,meteohub,2013-01-19 02:14:00,
2013-01-18 20:19:00,51.1,35.4,30.32,SE,133,9.0,18.0,55,0.00,,,0.00,meteohub,2013-01-19 02:19:00,
2013-01-18 20:24:00,50.7,35.6,30.32,SSE,147,4.0,18.0,56,0.00,,,0.00,meteohub,2013-01-19 02:24:00,
2013-01-18 20:29:00,50.4,35.2,30.32,SSE,160,10.0,18.0,56,0.00,,,0.00,meteohub,2013-01-19 02:29:00,
2013-01-18 20:34:00,50.2,35.6,30.32,SSE,156,7.0,16.0,57,0.00,,,0.00,meteohub,2013-01-19 02:34:00,
2013-01-18 20:39:00,49.6,35.4,30.32,SSE,152,8.0,16.0,58,0.00,,,0.00,meteohub,2013-01-19 02:39:00,
2013-01-18 20:44:00,49.6,35.4,30.32,SSE,165,11.0,15.0,58,0.00,,,0.00,meteohub,2013-01-19 02:44:00,
2013-01-18 20:49:00,49.5,35.2,30.32,SE,131,6.0,15.0,58,0.00,,,0.00,meteohub,2013-01-19 02:49:00,
2013-01-18 20:54:00,49.3,35.6,30.32,SSE,157,8.0,15.0,59,0.00,,,0.00,meteohub,2013-01-19 02:54:00,
2013-01-18 20:59:00,48.9,35.2,30.32,SE,146,9.0,15.0,59,0.00,,,0.00,meteohub,2013-01-19 02:59:00,
2013-01-18 21:04:00,48.9,35.6,30.32,SSE,152,12.0,14.0,60,0.00,,,0.00,meteohub,2013-01-19 03:04:00,
2013-01-18 21:09:00,48.9,35.2,30.31,SE,138,7.0,14.0,59,0.00,,,0.00,meteohub,2013-01-19 03:09:00,
2013-01-18 21:14:00,48.7,35.1,30.31,SE,144,7.0,15.0,59,0.00,,,0.00,meteohub,2013-01-19 03:14:00,
2013-01-18 21:19:00,48.6,35.2,30.31,ESE,123,10.0,15.0,60,0.00,,,0.00,meteohub,2013-01-19 03:19:00,
2013-01-18 21:24:00,48.4,35.1,30.31,SSE,147,7.0,15.0,60,0.00,,,0.00,meteohub,2013-01-19 03:24:00,
2013-01-18 21:29:00,48.4,35.1,30.31,SE,136,13.0,14.0,60,0.00,,,0.00,meteohub,2013-01-19 03:29:00,
2013-01-18 21:34:00,48.4,35.1,30.30,South,171,8.0,14.0,60,0.00,,,0.00,meteohub,2013-01-19 03:34:00,
2013-01-18 21:39:00,48.4,35.1,30.30,SSE,155,9.0,16.0,60,0.00,,,0.00,meteohub,2013-01-19 03:39:00,
2013-01-18 21:44:00,48.6,35.2,30.30,SSE,162,11.0,16.0,60,0.00,,,0.00,meteohub,2013-01-19 03:44:00,
2013-01-18 21:49:00,48.6,34.9,30.30,SSE,167,8.0,17.0,59,0.00,,,0.00,meteohub,2013-01-19 03:49:00,
2013-01-18 21:54:00,48.7,35.1,30.30,South,183,13.0,20.0,59,0.00,,,0.00,meteohub,2013-01-19 03:54:00,
2013-01-18 21:59:00,48.7,35.1,30.30,SSE,158,9.0,20.0,59,0.00,,,0.00,meteohub,2013-01-19 03:59:00,
2013-01-18 22:04:00,48.7,35.1,30.29,SSE,158,9.0,20.0,59,0.00,,,0.00,meteohub,2013-01-19 04:04:00,
2013-01-18 22:09:00,48.6,34.9,30.29,SSE,163,12.0,21.0,59,0.00,,,0.00,meteohub,2013-01-19 04:09:00,
2013-01-18 22:14:00,48.6,34.9,30.29,SE,137,11.0,23.0,59,0.00,,,0.00,meteohub,2013-01-19 04:14:00,
2013-01-18 22:19:00,48.7,35.1,30.29,South,175,12.0,23.0,59,0.00,,,0.00,meteohub,2013-01-19 04:19:00,
2013-01-18 22:24:00,48.7,35.1,30.28,SSE,167,9.0,23.0,59,0.00,,,0.00,meteohub,2013-01-19 04:24:00,
2013-01-18 22:29:00,48.7,35.1,30.28,SSE,158,19.0,23.0,59,0.00,,,0.00,meteohub,2013-01-19 04:29:00,
2013-01-18 22:34:00,48.9,34.9,30.28,South,180,8.0,23.0,58,0.00,,,0.00,meteohub,2013-01-19 04:34:00,
2013-01-18 22:39:00,48.9,34.9,30.28,South,180,8.0,23.0,58,0.00,,,0.00,meteohub,2013-01-19 04:39:00,
2013-01-18 22:44:00,48.9,34.9,30.28,South,186,16.0,24.0,58,0.00,,,0.00,meteohub,2013-01-19 04:44:00,
2013-01-18 22:49:00,48.7,34.7,30.28,ESE,103,14.0,24.0,58,0.00,,,0.00,meteohub,2013-01-19 04:49:00,
2013-01-18 22:54:00,48.7,34.7,30.28,South,182,12.0,24.0,58,0.00,,,0.00,meteohub,2013-01-19 04:54:00,
2013-01-18 22:59:00,48.7,35.1,30.28,South,182,15.0,24.0,59,0.00,,,0.00,meteohub,2013-01-19 04:59:00,
2013-01-18 23:00:00,48.7,35.1,30.28,South,182,13.0,24.0,59,0.00,,,0.00,meteohub,2013-01-19 05:00:00,
2013-01-18 23:02:00,48.7,35.1,30.28,SSE,151,8.0,23.0,59,0.00,,,0.00,meteohub,2013-01-19 05:02:00,
2013-01-18 23:12:00,48.7,35.1,30.28,South,183,6.0,26.0,59,0.00,,,0.00,meteohub,2013-01-19 05:12:00,
2013-01-18 23:15:00,48.7,35.1,30.28,South,176,6.0,26.0,59,0.00,,,0.00,meteohub,2013-01-19 05:15:00,
2013-01-18 23:20:00,48.7,35.1,30.27,South,173,9.0,26.0,59,0.00,,,0.00,meteohub,2013-01-19 05:20:00,
2013-01-18 23:25:00,48.6,34.9,30.27,SSE,163,16.0,22.0,59,0.00,,,0.00,meteohub,2013-01-19 05:25:00,
2013-01-18 23:30:00,48.4,34.7,30.27,SSW,198,8.0,21.0,59,0.00,,,0.00,meteohub,2013-01-19 05:30:00,
2013-01-18 23:35:00,48.4,35.1,30.27,SSW,200,8.0,21.0,60,0.00,,,0.00,meteohub,2013-01-19 05:35:00,
2013-01-18 23:40:00,48.0,34.9,30.27,SSE,152,20.0,20.0,60,0.00,,,0.00,meteohub,2013-01-19 05:40:00,
2013-01-18 23:45:00,48.2,34.9,30.27,South,181,14.0,21.0,60,0.00,,,0.00,meteohub,2013-01-19 05:45:00,
2013-01-18 23:50:00,48.4,34.7,30.27,South,188,7.0,22.0,59,0.00,,,0.00,meteohub,2013-01-19 05:50:00,
2013-01-18 23:55:00,48.4,34.7,30.26,SE,146,9.0,22.0,59,0.00,,,0.00,meteohub,2013-01-19 05:55:00,